Time,TemperatureF,DewpointF,PressureIn,WindDirection,WindDirectionDegrees,WindSpeedMPH,WindSpeedGustMPH,Humidity,HourlyPrecipIn,Conditions,Clouds,dailyrainin,SoftwareType,DateUTC
2013-03-17 00:05:00,12.6,9.7,29.96,SSW,193,10.0,11.0,88,0.00,,,0.00,Wunderground v.1.15,2013-03-17 08:05:00,
2013-03-17 00:15:00,12.6,9.7,29.97,South,187,11.0,11.0,88,0.00,,,0.00,Wunderground v.1.15,2013-03-17 08:15:00,
2013-03-17 00:25:00,12.6,9.7,29.97,South,183,10.0,11.0,88,0.00,,,0.00,Wunderground v.1.15,2013-03-17 08:25:00,
2013-03-17 00:35:00,12.6,9.7,29.98,SSW,196,10.0,12.0,88,0.00,,,0.00,Wunderground v.1.15,2013-03-17 08:35:00,
2013-03-17 00:45:00,12.1,9.0,29.99,SSW,205,8.0,9.0,87,0.00,,,0.00,Wunderground v.1.15,2013-03-17 08:45:00,
2013-03-17 00:55:00,11.6,8.5,29.99,SSW,208,7.0,8.0,87,0.00,,,0.00,Wunderground v.1.15,2013-03-17 08:55:00,
2013-03-17 01:00:00,11.2,8.1,30.00,SSW,196,7.0,7.0,87,0.00,,,0.00,Wunderground v.1.15,2013-03-17 09:00:00,
2013-03-17 01:05:00,10.9,7.5,30.00,SSW,194,7.0,7.0,86,0.00,,,0.00,Wunderground v.1.15,2013-03-17 09:05:00,
2013-03-17 01:15:00,9.9,6.6,30.00,SSW,194,5.0,7.0,86,0.00,,,0.00,Wunderground v.1.15,2013-03-17 09:15:00,
2013-03-17 01:20:00,9.7,6.4,30.00,SSW,194,3.0,3.0,86,0.00,,,0.00,Wunderground v.1.15,2013-03-17 09:20:00,
2013-03-17 01:25:00,9.5,6.2,30.00,SSW,194,2.0,3.0,86,0.00,,,0.00,Wunderground v.1.15,2013-03-17 09:25:00,
2013-03-17 01:35:00,10.0,6.9,30.01,SW,215,5.0,6.0,87,0.00,,,0.00,Wunderground v.1.15,2013-03-17 09:35:00,
2013-03-17 01:40:00,10.0,6.9,30.01,SSW,196,6.0,7.0,87,0.00,,,0.00,Wunderground v.1.15,2013-03-17 09:40:00,
2013-03-17 01:50:00,10.4,7.3,30.01,South,183,10.0,10.0,87,0.00,,,0.00,Wunderground v.1.15,2013-03-17 09:50:00,
2013-03-17 02:00:00,10.0,6.6,30.02,South,188,7.0,7.0,86,0.00,,,0.00,Wunderground v.1.15,2013-03-17 10:00:00,
2013-03-17 02:10:00,9.2,5.6,30.02,South,190,4.0,4.0,85,0.00,,,0.00,Wunderground v.1.15,2013-03-17 10:10:00,
2013-03-17 02:20:00,9.0,5.7,30.02,SSW,205,3.0,3.0,86,0.00,,,0.00,Wunderground v.1.15,2013-03-17 10:20:00,
2013-03-17 02:30:00,7.4,3.6,30.02,SSW,212,2.0,2.0,84,0.00,,,0.00,Wunderground v.1.15,2013-03-17 10:30:00,
2013-03-17 02:35:00,6.9,3.1,30.02,SSW,212,2.0,3.0,84,0.00,,,0.00,Wunderground v.1.15,2013-03-17 10:35:00,
2013-03-17 02:45:00,6.5,2.7,30.03,SSW,212,2.0,2.0,84,0.00,,,0.00,Wunderground v.1.15,2013-03-17 10:45:00,
2013-03-17 02:50:00,6.3,2.5,30.03,SSW,212,1.0,1.0,84,0.00,,,0.00,Wunderground v.1.15,2013-03-17 10:50:00,
2013-03-17 03:00:00,6.1,2.6,30.04,SSW,212,1.0,1.0,85,0.00,,,0.00,Wunderground v.1.15,2013-03-17 11:00:00,
2013-03-17 03:10:00,6.7,3.1,30.04,SSW,212,0.0,1.0,85,0.00,,,0.00,Wunderground v.1.15,2013-03-17 11:10:00,
2013-03-17 03:15:00,7.0,3.4,30.04,SSW,212,1.0,2.0,85,0.00,,,0.00,Wunderground v.1.15,2013-03-17 11:15:00,
2013-03-17 03:20:00,7.2,3.9,30.04,SSW,212,2.0,2.0,86,0.00,,,0.00,Wunderground v.1.15,2013-03-17 11:20:00,
2013-03-17 03:30:00,7.6,4.0,30.05,SSW,212,0.0,0.0,85,0.00,,,0.00,Wunderground v.1.15,2013-03-17 11:30:00,
2013-03-17 03:35:00,7.7,4.4,30.05,SSW,212,0.0,0.0,86,0.00,,,0.00,Wunderground v.1.15,2013-03-17 11:35:00,
2013-03-17 03:40:00,7.7,4.1,30.05,SSW,212,0.0,0.0,85,0.00,,,0.00,Wunderground v.1.15,2013-03-17 11:40:00,
2013-03-17 03:50:00,7.4,3.8,30.06,SSW,212,0.0,0.0,85,0.00,,,0.00,Wunderground v.1.15,2013-03-17 11:50:00,
2013-03-17 04:00:00,7.6,4.3,30.07,SSW,212,0.0,0.0,86,0.00,,,0.00,Wunderground v.1.15,2013-03-17 12:00:00,
2013-03-17 04:10:00,8.6,5.3,30.07,SSW,212,0.0,0.0,86,0.00,,,0.00,Wunderground v.1.15,2013-03-17 12:10:00,
2013-03-17 04:20:00,9.5,6.4,30.07,SSE,159,4.0,6.0,87,0.00,,,0.00,Wunderground v.1.15,2013-03-17 12:20:00,
2013-03-17 04:30:00,10.2,7.1,30.08,SSE,162,4.0,4.0,87,0.00,,,0.00,Wunderground v.1.15,2013-03-17 12:30:00,
2013-03-17 04:35:00,10.2,7.1,30.08,SSE,162,2.0,4.0,87,0.00,,,0.00,Wunderground v.1.15,2013-03-17 12:35:00,
2013-03-17 04:40:00,10.2,7.1,30.08,SSE,162,0.0,0.0,87,0.00,,,0.00,Wunderground v.1.15,2013-03-17 12:40:00,
2013-03-17 04:50:00,10.2,7.1,30.08,SSE,162,0.0,0.0,87,0.00,,,0.00,Wunderground v.1.15,2013-03-17 12:50:00,
2013-03-17 05:00:00,10.5,7.4,30.09,SSE,162,1.0,5.0,87,0.00,,,0.00,Wunderground v.1.15,2013-03-17 13:00:00,
2013-03-17 05:10:00,11.1,8.0,30.09,SSE,156,6.0,6.0,87,0.00,,,0.00,Wunderground v.1.15,2013-03-17 13:10:00,
2013-03-17 05:20:00,11.2,8.1,30.09,South,176,9.0,9.0,87,0.00,,,0.00,Wunderground v.1.15,2013-03-17 13:20:00,
2013-03-17 05:30:00,11.2,8.1,30.09,SSE,156,8.0,8.0,87,0.00,,,0.00,Wunderground v.1.15,2013-03-17 13:30:00,
2013-03-17 05:40:00,11.4,8.3,30.09,SE,146,7.0,7.0,87,0.00,,,0.00,Wunderground v.1.15,2013-03-17 13:40:00,
2013-03-17 05:50:00,10.9,7.8,30.09,SSE,156,3.0,3.0,87,0.00,,,0.00,Wunderground v.1.15,2013-03-17 13:50:00,
2013-03-17 06:00:00,10.4,7.0,30.09,East,80,0.0,0.0,86,0.00,,,0.00,Wunderground v.1.15,2013-03-17 14:00:00,
2013-03-17 06:10:00,10.9,7.8,30.09,SE,145,5.0,5.0,87,0.00,,,0.00,Wunderground v.1.15,2013-03-17 14:10:00,
2013-03-17 06:20:00,12.1,9.2,30.09,East,88,7.0,7.0,88,0.00,,,0.00,Wunderground v.1.15,2013-03-17 14:20:00,
2013-03-17 06:26:00,12.1,9.0,30.09,East,81,5.0,7.0,87,0.00,,,0.00,Wunderground v.1.15,2013-03-17 14:26:00,
2013-03-17 06:35:00,12.4,9.5,30.09,SE,139,1.0,6.0,88,0.00,,,0.00,Wunderground v.1.15,2013-03-17 14:35:00,
2013-03-17 06:45:00,12.8,9.9,30.09,West,270,1.0,1.0,88,0.00,,,0.00,Wunderground v.1.15,2013-03-17 14:45:00,
2013-03-17 06:55:00,12.9,10.0,30.09,NNW,334,1.0,1.0,88,0.00,,,0.00,Wunderground v.1.15,2013-03-17 14:55:00,
2013-03-17 07:00:00,13.3,10.4,30.09,WNW,287,1.0,1.0,88,0.00,,,0.00,Wunderground v.1.15,2013-03-17 15:00:00,
2013-03-17 07:10:00,13.6,10.7,30.09,WNW,287,0.0,2.0,88,0.00,,,0.00,Wunderground v.1.15,2013-03-17 15:10:00,
2013-03-17 07:20:00,14.0,11.1,30.10,WNW,290,1.0,1.0,88,0.00,,,0.00,Wunderground v.1.15,2013-03-17 15:20:00,
2013-03-17 07:30:00,14.3,11.4,30.10,NW,321,1.0,1.0,88,0.00,,,0.00,Wunderground v.1.15,2013-03-17 15:30:00,
2013-03-17 07:40:00,15.1,12.4,30.10,SE,138,2.0,6.0,89,0.00,,,0.00,Wunderground v.1.15,2013-03-17 15:40:00,
2013-03-17 07:50:00,15.7,13.0,30.11,SE,138,8.0,11.0,89,0.00,,,0.00,Wunderground v.1.15,2013-03-17 15:50:00,
2013-03-17 07:55:00,16.1,13.2,30.11,SE,124,10.0,11.0,88,0.00,,,0.00,Wunderground v.1.15,2013-03-17 15:55:00,
2013-03-17 08:05:00,16.5,13.6,30.10,SE,146,12.0,13.0,88,0.00,,,0.00,Wunderground v.1.15,2013-03-17 16:05:00,
2013-03-17 08:10:00,16.9,14.0,30.10,SE,140,13.0,13.0,88,0.00,,,0.00,Wunderground v.1.15,2013-03-17 16:10:00,
2013-03-17 08:20:00,17.0,14.1,30.10,SE,138,12.0,13.0,88,0.00,,,0.00,Wunderground v.1.15,2013-03-17 16:20:00,
2013-03-17 08:25:00,17.2,14.3,30.10,SE,136,13.0,15.0,88,0.00,,,0.00,Wunderground v.1.15,2013-03-17 16:25:00,
2013-03-17 08:35:00,17.2,14.3,30.10,SSE,155,13.0,14.0,88,0.00,,,0.00,Wunderground v.1.15,2013-03-17 16:35:00,
2013-03-17 08:45:00,17.8,14.8,30.10,SE,136,13.0,15.0,88,0.00,,,0.00,Wunderground v.1.15,2013-03-17 16:45:00,
2013-03-17 08:55:00,18.4,15.4,30.10,SE,142,13.0,15.0,88,0.00,,,0.00,Wunderground v.1.15,2013-03-17 16:55:00,
2013-03-17 09:00:00,18.8,15.8,30.10,SE,139,12.0,16.0,88,0.00,,,0.00,Wunderground v.1.15,2013-03-17 17:00:00,
2013-03-17 09:10:00,18.8,15.6,30.10,SE,126,12.0,13.0,87,0.00,,,0.00,Wunderground v.1.15,2013-03-17 17:10:00,
2013-03-17 09:20:00,18.9,15.7,30.10,SE,138,12.0,12.0,87,0.00,,,0.00,Wunderground v.1.15,2013-03-17 17:20:00,
2013-03-17 09:30:00,19.2,16.0,30.10,SE,129,11.0,13.0,87,0.00,,,0.00,Wunderground v.1.15,2013-03-17 17:30:00,
2013-03-17 09:40:00,19.4,16.2,30.10,SE,140,11.0,11.0,87,0.00,,,0.00,Wunderground v.1.15,2013-03-17 17:40:00,
2013-03-17 09:50:00,19.9,16.7,30.11,SE,142,11.0,11.0,87,0.00,,,0.00,Wunderground v.1.15,2013-03-17 17:50:00,
2013-03-17 10:00:00,19.9,16.7,30.11,SE,138,11.0,12.0,87,0.00,,,0.00,Wunderground v.1.15,2013-03-17 18:00:00,
2013-03-17 10:10:00,20.0,16.8,30.11,SE,140,11.0,12.0,87,0.00,,,0.00,Wunderground v.1.15,2013-03-17 18:10:00,
2013-03-17 10:15:00,20.2,17.0,30.11,SE,145,11.0,13.0,87,0.00,,,0.00,Wunderground v.1.15,2013-03-17 18:15:00,
2013-03-17 10:25:00,20.8,17.5,30.11,SSE,148,13.0,16.0,87,0.00,,,0.00,Wunderground v.1.15,2013-03-17 18:25:00,
2013-03-17 10:35:00,21.1,17.8,30.11,SSE,148,13.0,14.0,87,0.00,,,0.00,Wunderground v.1.15,2013-03-17 18:35:00,
2013-03-17 10:45:00,21.1,17.8,30.11,SSE,152,13.0,17.0,87,0.00,,,0.00,Wunderground v.1.15,2013-03-17 18:45:00,
2013-03-17 10:55:00,21.4,18.1,30.11,SSE,156,16.0,18.0,87,0.00,,,0.00,Wunderground v.1.15,2013-03-17 18:55:00,
2013-03-17 11:00:00,21.3,18.0,30.11,SSE,150,16.0,21.0,87,0.00,,,0.00,Wunderground v.1.15,2013-03-17 19:00:00,
2013-03-17 11:10:00,21.4,18.4,30.11,SSE,156,17.0,17.0,88,0.00,,,0.00,Wunderground v.1.15,2013-03-17 19:10:00,
2013-03-17 11:20:00,21.8,19.1,30.11,SSE,156,18.0,19.0,89,0.00,,,0.00,Wunderground v.1.15,2013-03-17 19:20:00,
2013-03-17 11:25:00,21.8,18.8,30.11,SSE,155,19.0,22.0,88,0.00,,,0.00,Wunderground v.1.15,2013-03-17 19:25:00,
2013-03-17 11:35:00,22.1,19.1,30.11,SSE,152,18.0,19.0,88,0.00,,,0.00,Wunderground v.1.15,2013-03-17 19:35:00,
2013-03-17 11:40:00,22.1,19.1,30.11,SSE,156,18.0,18.0,88,0.00,,,0.00,Wunderground v.1.15,2013-03-17 19:40:00,
2013-03-17 11:45:00,22.1,19.4,30.13,SSE,150,16.0,18.0,89,0.00,,,0.00,Wunderground v.1.15,2013-03-17 19:45:00,
2013-03-17 11:55:00,22.2,19.2,30.13,SSE,153,17.0,22.0,88,0.00,,,0.00,Wunderground v.1.15,2013-03-17 19:55:00,
2013-03-17 12:00:00,22.2,19.2,30.13,SSE,156,17.0,17.0,88,0.00,,,0.00,Wunderground v.1.15,2013-03-17 20:00:00,
2013-03-17 12:10:00,22.4,19.4,30.13,SSE,156,17.0,17.0,88,0.00,,,0.00,Wunderground v.1.15,2013-03-17 20:10:00,
2013-03-17 12:15:00,22.4,19.6,30.14,SSE,156,16.0,17.0,89,0.00,,,0.00,Wunderground v.1.15,2013-03-17 20:15:00,
2013-03-17 12:25:00,22.4,19.6,30.14,SSE,156,16.0,16.0,89,0.00,,,0.00,Wunderground v.1.15,2013-03-17 20:25:00,
2013-03-17 12:30:00,22.4,19.6,30.14,SSE,156,17.0,17.0,89,0.00,,,0.00,Wunderground v.1.15,2013-03-17 20:30:00,
2013-03-17 12:35:00,22.5,19.7,30.14,SSE,156,17.0,17.0,89,0.00,,,0.00,Wunderground v.1.15,2013-03-17 20:35:00,
2013-03-17 12:45:00,22.5,19.7,30.14,SSE,156,18.0,22.0,89,0.00,,,0.00,Wunderground v.1.15,2013-03-17 20:45:00,
2013-03-17 12:55:00,22.9,20.1,30.14,SSE,156,18.0,21.0,89,0.00,,,0.00,Wunderground v.1.15,2013-03-17 20:55:00,
2013-03-17 13:05:00,23.0,20.2,30.15,SSE,160,18.0,19.0,89,0.00,,,0.00,Wunderground v.1.15,2013-03-17 21:05:00,
2013-03-17 13:15:00,22.9,19.9,30.15,SSE,162,17.0,19.0,88,0.00,,,0.00,Wunderground v.1.15,2013-03-17 21:15:00,
2013-03-17 13:25:00,22.9,20.1,30.15,SSE,156,17.0,17.0,89,0.00,,,0.00,Wunderground v.1.15,2013-03-17 21:25:00,
2013-03-17 13:35:00,23.0,20.2,30.16,SSE,156,16.0,18.0,89,0.00,,,0.00,Wunderground v.1.15,2013-03-17 21:35:00,
2013-03-17 13:45:00,23.2,20.2,30.16,SSE,155,17.0,19.0,88,0.00,,,0.00,Wunderground v.1.15,2013-03-17 21:45:00,
2013-03-17 13:55:00,23.3,20.3,30.16,SSE,152,17.0,18.0,88,0.00,,,0.00,Wunderground v.1.15,2013-03-17 21:55:00,
2013-03-17 14:05:00,23.3,20.3,30.16,SSE,156,17.0,19.0,88,0.00,,,0.00,Wunderground v.1.15,2013-03-17 22:05:00,
2013-03-17 14:15:00,23.5,20.5,30.17,SSE,156,17.0,17.0,88,0.00,,,0.00,Wunderground v.1.15,2013-03-17 22:15:00,
2013-03-17 14:20:00,23.5,20.2,30.17,SSE,156,16.0,19.0,87,0.00,,,0.00,Wunderground v.1.15,2013-03-17 22:20:00,
2013-03-17 14:30:00,23.5,20.2,30.17,SSE,155,17.0,17.0,87,0.00,,,0.00,Wunderground v.1.15,2013-03-17 22:30:00,
2013-03-17 14:40:00,23.5,20.2,30.17,SSE,156,17.0,17.0,87,0.00,,,0.00,Wunderground v.1.15,2013-03-17 22:40:00,
2013-03-17 14:50:00,23.6,20.3,30.18,SSE,160,17.0,17.0,87,0.00,,,0.00,Wunderground v.1.15,2013-03-17 22:50:00,
2013-03-17 15:00:00,23.5,20.2,30.18,SSE,159,18.0,18.0,87,0.00,,,0.00,Wunderground v.1.15,2013-03-17 23:00:00,
2013-03-17 15:10:00,23.6,20.3,30.18,SSE,156,17.0,17.0,87,0.00,,,0.00,Wunderground v.1.15,2013-03-17 23:10:00,
2013-03-17 15:20:00,23.9,20.6,30.18,SSE,152,15.0,17.0,87,0.00,,,0.00,Wunderground v.1.15,2013-03-17 23:20:00,
2013-03-17 15:30:00,24.1,20.5,30.18,SSE,156,15.0,15.0,86,0.00,,,0.00,Wunderground v.1.15,2013-03-17 23:30:00,
2013-03-17 15:40:00,24.2,20.6,30.18,SSE,163,15.0,16.0,86,0.00,,,0.00,Wunderground v.1.15,2013-03-17 23:40:00,
2013-03-17 15:50:00,24.1,20.5,30.18,SSE,156,16.0,16.0,86,0.00,,,0.00,Wunderground v.1.15,2013-03-17 23:50:00,
2013-03-17 16:00:00,24.2,20.6,30.18,SSE,156,15.0,16.0,86,0.00,,,0.00,Wunderground v.1.15,2013-03-18 00:00:00,
2013-03-17 16:10:00,24.5,20.6,30.18,SSE,157,13.0,13.0,85,0.00,,,0.00,Wunderground v.1.15,2013-03-18 00:10:00,
2013-03-17 16:20:00,24.4,20.8,30.19,SSE,152,14.0,14.0,86,0.00,,,0.00,Wunderground v.1.15,2013-03-18 00:20:00,
2013-03-17 16:30:00,24.5,20.6,30.19,SSE,156,13.0,13.0,85,0.00,,,0.00,Wunderground v.1.15,2013-03-18 00:30:00,
2013-03-17 16:40:00,24.5,20.6,30.19,SSE,156,12.0,12.0,85,0.00,,,0.00,Wunderground v.1.15,2013-03-18 00:40:00,
2013-03-17 16:45:00,24.5,20.4,30.19,SSE,156,11.0,12.0,84,0.00,,,0.00,Wunderground v.1.15,2013-03-18 00:45:00,
2013-03-17 16:55:00,24.5,20.4,30.19,SSE,156,11.0,13.0,84,0.00,,,0.00,Wunderground v.1.15,2013-03-18 00:55:00,
2013-03-17 17:05:00,24.7,20.6,30.19,SSE,160,10.0,11.0,84,0.00,,,0.00,Wunderground v.1.15,2013-03-18 01:05:00,
2013-03-17 17:10:00,24.8,20.4,30.19,SSE,156,9.0,9.0,83,0.00,,,0.00,Wunderground v.1.15,2013-03-18 01:10:00,
2013-03-17 17:15:00,25.0,20.6,30.20,SSE,160,8.0,9.0,83,0.00,,,0.00,Wunderground v.1.15,2013-03-18 01:15:00,
2013-03-17 17:25:00,25.3,20.6,30.20,SSE,159,7.0,7.0,82,0.00,,,0.00,Wunderground v.1.15,2013-03-18 01:25:00,
2013-03-17 17:35:00,25.4,20.4,30.20,SSE,156,8.0,8.0,81,0.00,,,0.00,Wunderground v.1.15,2013-03-18 01:35:00,
2013-03-17 17:40:00,25.4,20.4,30.20,SSE,155,7.0,7.0,81,0.00,,,0.00,Wunderground v.1.15,2013-03-18 01:40:00,
2013-03-17 17:50:00,25.3,20.3,30.20,SSE,164,7.0,7.0,81,0.00,,,0.00,Wunderground v.1.15,2013-03-18 01:50:00,
2013-03-17 18:00:00,25.3,20.3,30.21,South,169,5.0,5.0,81,0.00,,,0.00,Wunderground v.1.15,2013-03-18 02:00:00,
2013-03-17 18:05:00,25.4,20.4,30.21,South,169,4.0,5.0,81,0.00,,,0.00,Wunderground v.1.15,2013-03-18 02:05:00,
2013-03-17 18:15:00,25.7,20.1,30.21,South,180,5.0,6.0,79,0.00,,,0.00,Wunderground v.1.15,2013-03-18 02:15:00,
2013-03-17 18:25:00,26.0,20.1,30.21,SE,145,1.0,5.0,78,0.00,,,0.00,Wunderground v.1.15,2013-03-18 02:25:00,
2013-03-17 18:35:00,25.4,19.5,30.21,SSE,150,7.0,7.0,78,0.00,,,0.00,Wunderground v.1.15,2013-03-18 02:35:00,
2013-03-17 18:45:00,25.6,19.7,30.21,SSE,155,6.0,7.0,78,0.00,,,0.00,Wunderground v.1.15,2013-03-18 02:45:00,
2013-03-17 18:50:00,25.8,19.3,30.21,SSE,156,7.0,7.0,76,0.00,,,0.00,Wunderground v.1.15,2013-03-18 02:50:00,
2013-03-17 19:00:00,25.3,18.8,30.21,SSE,148,5.0,5.0,76,0.00,,,0.00,Wunderground v.1.15,2013-03-18 03:00:00,
2013-03-17 19:10:00,25.1,18.3,30.21,SE,128,3.0,3.0,75,0.00,,,0.00,Wunderground v.1.15,2013-03-18 03:10:00,
2013-03-17 19:15:00,24.8,18.0,30.21,ESE,102,3.0,6.0,75,0.00,,,0.00,Wunderground v.1.15,2013-03-18 03:15:00,
2013-03-17 19:25:00,23.6,16.8,30.21,SE,126,4.0,7.0,75,0.00,,,0.00,Wunderground v.1.15,2013-03-18 03:25:00,
2013-03-17 19:35:00,23.8,17.3,30.21,SE,124,6.0,7.0,76,0.00,,,0.00,Wunderground v.1.15,2013-03-18 03:35:00,
2013-03-17 19:45:00,24.8,17.7,30.22,SE,136,5.0,6.0,74,0.00,,,0.00,Wunderground v.1.15,2013-03-18 03:45:00,
2013-03-17 19:50:00,24.8,17.7,30.22,SE,142,4.0,4.0,74,0.00,,,0.00,Wunderground v.1.15,2013-03-18 03:50:00,
2013-03-17 20:00:00,24.4,17.6,30.22,ESE,115,1.0,1.0,75,0.00,,,0.00,Wunderground v.1.15,2013-03-18 04:00:00,
2013-03-17 20:10:00,23.6,16.2,30.22,ESE,111,1.0,1.0,73,0.00,,,0.00,Wunderground v.1.15,2013-03-18 04:10:00,
2013-03-17 20:15:00,23.2,16.4,30.22,ESE,111,0.0,1.0,75,0.00,,,0.00,Wunderground v.1.15,2013-03-18 04:15:00,
2013-03-17 20:25:00,20.3,13.6,30.22,ENE,74,2.0,2.0,75,0.00,,,0.00,Wunderground v.1.15,2013-03-18 04:25:00,
2013-03-17 20:35:00,21.6,15.5,30.22,ENE,73,3.0,3.0,77,0.00,,,0.00,Wunderground v.1.15,2013-03-18 04:35:00,
2013-03-17 20:45:00,19.2,12.9,30.23,ENE,73,2.0,2.0,76,0.00,,,0.00,Wunderground v.1.15,2013-03-18 04:45:00,
2013-03-17 20:50:00,18.6,12.9,30.23,ENE,73,1.0,1.0,78,0.00,,,0.00,Wunderground v.1.15,2013-03-18 04:50:00,
2013-03-17 21:00:00,16.7,11.0,30.23,ENE,73,1.0,1.0,78,0.00,,,0.00,Wunderground v.1.15,2013-03-18 05:00:00,
2013-03-17 21:10:00,15.4,10.9,30.23,ENE,73,1.0,1.0,82,0.00,,,0.00,Wunderground v.1.15,2013-03-18 05:10:00,
2013-03-17 21:20:00,15.1,10.6,30.24,ENE,73,1.0,3.0,82,0.00,,,0.00,Wunderground v.1.15,2013-03-18 05:20:00,
2013-03-17 21:30:00,15.7,10.6,30.24,ENE,73,1.0,2.0,80,0.00,,,0.00,Wunderground v.1.15,2013-03-18 05:30:00,
2013-03-17 21:40:00,14.6,9.8,30.24,ENE,73,1.0,1.0,81,0.00,,,0.00,Wunderground v.1.15,2013-03-18 05:40:00,
2013-03-17 21:50:00,13.6,9.4,30.25,ENE,73,2.0,3.0,83,0.00,,,0.00,Wunderground v.1.15,2013-03-18 05:50:00,
2013-03-17 22:00:00,12.6,8.1,30.25,ENE,71,2.0,2.0,82,0.00,,,0.00,Wunderground v.1.15,2013-03-18 06:00:00,
2013-03-17 22:05:00,12.9,9.0,30.25,ENE,71,1.0,2.0,84,0.00,,,0.00,Wunderground v.1.15,2013-03-18 06:05:00,
2013-03-17 22:15:00,12.4,8.5,30.25,ENE,61,1.0,5.0,84,0.00,,,0.00,Wunderground v.1.15,2013-03-18 06:15:00,
2013-03-17 22:25:00,13.5,9.6,30.25,NNE,28,4.0,5.0,84,0.00,,,0.00,Wunderground v.1.15,2013-03-18 06:25:00,
2013-03-17 22:35:00,14.1,9.9,30.25,NNE,28,3.0,4.0,83,0.00,,,0.00,Wunderground v.1.15,2013-03-18 06:35:00,
2013-03-17 22:45:00,14.0,9.8,30.25,NNE,28,2.0,5.0,83,0.00,,,0.00,Wunderground v.1.15,2013-03-18 06:45:00,
2013-03-17 22:55:00,14.8,10.8,30.25,NNE,32,4.0,4.0,84,0.00,,,0.00,Wunderground v.1.15,2013-03-18 06:55:00,
2013-03-17 23:00:00,14.3,9.5,30.25,NNE,32,4.0,6.0,81,0.00,,,0.00,Wunderground v.1.15,2013-03-18 07:00:00,
2013-03-17 23:10:00,12.6,8.4,30.25,NNE,32,3.0,3.0,83,0.00,,,0.00,Wunderground v.1.15,2013-03-18 07:10:00,
2013-03-17 23:20:00,12.4,8.5,30.25,NNE,26,3.0,5.0,84,0.00,,,0.00,Wunderground v.1.15,2013-03-18 07:20:00,
2013-03-17 23:30:00,14.0,9.5,30.26,NNE,26,4.0,4.0,82,0.00,,,0.00,Wunderground v.1.15,2013-03-18 07:30:00,
2013-03-17 23:40:00,12.4,7.7,30.26,NNE,26,0.0,0.0,81,0.00,,,0.00,Wunderground v.1.15,2013-03-18 07:40:00,
2013-03-17 23:45:00,11.9,7.7,30.26,NNE,26,0.0,0.0,83,0.00,,,0.00,Wunderground v.1.15,2013-03-18 07:45:00,
2013-03-17 23:55:00,10.0,5.6,30.26,NNE,26,1.0,3.0,82,0.00,,,0.00,Wunderground v.1.15,2013-03-18 07:55:00,